Theta_e
318 317 317 317 317 317 317 317 317 317 318 318 318 318 318 318 319 318 319 318 318 319 319 319 319 320 321 320 320 320 319 314 311 310 307 311 319 323 332 335 335 339 350 344 339 329 322 326 329 338 337 336 334 334 339 339 338 335 326 322 319 321 320 323 323 325 331 331 333 335 337 335 331 338 341 345 341 341 340 339 342 344 342 344 345 347 347 347
318 317 317 317 317 317 317 317 317 317 317 317 317 317 318 318 318 318 318 319 318 318 319 319 319 320 321 321 320 320 317 314 310 309 309 319 326 327 335 335 340 340 347 337 330 324 320 320 327 336 333 329 330 333 339 333 339 329 325 324 319 323 324 327 328 332 331 332 335 336 339 337 334 338 341 335 334 336 334 337 339 337 340 343 344 345 345 346
318 317 317 316 317 317 317 317 317 317 317 317 317 317 317 318 318 318 318 318 318 318 318 318 319 320 321 321 321 320 315 311 311 310 316 333 329 331 335 338 341 345 337 332 329 325 319 322 329 332 328 322 327 327 334 327 334 332 326 320 323 328 328 330 331 331 335 338 335 335 337 337 338 339 344 335 333 335 332 331 334 334 334 338 341 343 344 344
317 317 316 316 316 316 316 316 316 316 316 316 316 317 317 317 317 317 317 317 317 318 318 318 319 320 321 321 321 320 316 310 307 317 324 339 336 333 335 340 343 346 335 334 328 323 324 327 327 324 319 318 322 326 327 329 327 330 326 321 324 326 326 329 330 332 338 339 337 336 339 336 339 341 341 336 332 332 334 336 334 333 335 337 340 341 342 343
317 316 316 316 316 316 316 316 316 316 316 316 316 316 317 317 317 317 317 317 317 317 318 318 319 320 322 322 319 319 311 306 309 320 324 344 338 335 337 343 342 338 334 326 324 323 325 324 320 319 316 313 321 321 324 328 330 328 326 330 329 330 325 328 329 335 339 340 339 338 334 334 344 341 340 337 331 329 334 337 339 338 339 338 338 340 341 342
316 316 315 315 315 315 316 316 316 316 316 316 316 316 316 316 316 316 317 317 317 317 317 318 319 320 322 319 319 316 307 296 309 311 346 342 337 338 341 344 342 330 326 323 320 320 322 322 318 311 313 314 317 318 320 324 329 318 323 324 326 326 323 329 329 336 339 339 337 335 338 342 338 337 341 338 337 340 343 341 341 341 341 341 342 341 340 341
315 315 315 315 315 315 316 315 315 315 315 316 316 316 316 316 316 316 316 316 316 317 317 318 319 321 322 319 316 311 304 305 313 328 342 340 340 343 346 341 338 326 323 317 318 316 318 320 317 312 312 315 317 317 320 320 324 322 320 323 324 325 323 326 325 336 338 338 338 340 341 337 336 331 341 337 344 343 343 343 343 343 343 343 340 340 340 340
315 315 315 315 315 315 315 315 315 315 316 315 316 316 316 316 316 315 316 316 316 317 317 318 319 320 320 315 309 303 303 303 311 332 345 341 338 344 344 324 320 322 318 316 317 315 317 316 312 318 312 308 316 316 321 320 322 320 320 324 323 324 325 326 326 336 338 338 341 340 336 337 338 337 340 337 342 342 343 345 343 343 342 341 340 339 340 341
315 315 315 315 315 315 315 315 316 316 316 316 315 316 316 315 315 315 316 316 317 317 317 318 319 322 322 309 303 301 301 311 315 340 336 333 337 331 329 318 315 319 315 316 316 319 316 314 316 316 309 313 321 316 321 320 317 321 321 323 323 322 323 323 325 334 338 339 340 336 336 337 338 343 337 339 342 341 344 343 342 341 340 339 339 340 340 340
315 315 315 315 315 315 315 315 315 316 316 315 315 315 315 315 315 315 316 316 317 317 317 318 320 322 317 309 307 298 307 314 338 339 332 339 328 326 325 319 314 314 313 312 314 318 314 316 316 321 320 319 321 320 322 320 319 322 321 321 319 318 317 316 317 334 338 338 339 335 334 335 340 337 330 341 342 341 341 341 341 340 339 339 339 339 340 340
315 315 315 315 315 315 315 315 315 315 315 316 315 315 315 315 315 315 316 316 316 317 318 319 321 322 312 313 303 299 314 335 343 332 335 339 330 325 321 315 315 313 313 310 313 318 316 319 320 322 319 318 319 317 318 319 319 316 316 314 314 313 324 323 327 335 337 335 339 337 334 336 338 336 333 339 342 340 339 339 339 339 339 339 339 339 341 341
315 315 315 315 315 315 315 315 315 315 315 315 314 314 315 315 315 315 315 316 316 317 318 320 321 320 316 310 306 305 315 335 336 329 336 338 331 328 323 316 316 315 313 310 311 313 317 320 318 320 313 318 317 316 315 315 314 314 314 310 314 313 322 332 331 334 335 334 338 338 332 329 332 330 336 341 342 339 338 338 338 339 339 339 339 339 340 340
315 315 315 315 315 314 315 315 315 315 314 314 314 314 314 314 314 315 315 315 316 317 319 320 323 319 314 304 309 317 320 334 332 330 331 330 328 330 330 323 319 319 317 313 311 312 313 318 318 318 313 313 313 313 313 315 314 314 312 310 310 311 314 332 335 336 333 335 338 335 317 324 329 333 337 341 340 339 336 337 338 338 338 339 339 338 339 340
315 315 314 314 314 315 315 315 315 314 314 314 314 313 313 314 314 314 315 314 316 317 320 322 323 318 310 303 310 314 318 320 336 327 327 329 325 327 331 328 324 321 320 317 316 314 312 315 317 314 315 313 312 316 313 313 310 311 309 308 306 307 308 330 332 334 329 336 337 335 317 320 329 334 338 340 340 337 334 336 337 337 337 338 338 338 338 339
314 314 314 314 314 315 315 315 314 314 314 314 313 312 313 313 315 315 315 315 316 319 322 325 321 314 306 307 317 323 332 329 330 327 329 324 325 324 326 328 324 322 320 318 317 316 313 313 314 314 313 314 315 313 311 311 310 308 308 307 304 305 308 328 333 332 327 333 337 331 320 321 324 333 337 340 339 338 335 336 336 337 337 337 338 337 337 338
315 314 314 314 314 314 314 314 314 314 314 313 312 312 314 320 319 318 318 317 319 320 324 318 317 315 308 303 316 331 326 317 322 332 333 327 325 321 328 327 326 322 321 318 318 316 313 312 313 313 314 315 313 311 310 309 308 306 307 305 303 302 305 321 330 333 333 332 335 330 318 322 325 333 337 339 338 337 335 335 335 336 337 337 337 337 338 338
314 314 314 314 314 314 314 314 314 314 313 312 311 312 316 323 321 321 320 321 321 324 319 310 317 317 300 312 317 311 313 318 317 329 331 331 327 330 327 324 321 319 319 318 317 313 311 310 310 312 313 311 312 310 307 305 305 305 305 305 302 301 312 311 326 332 332 332 327 331 325 323 326 333 336 338 338 336 335 335 335 336 336 337 337 337 337 338
314 314 314 314 315 314 314 314 314 313 312 311 310 311 312 319 323 323 323 323 324 322 321 320 318 305 300 305 303 309 313 313 311 319 329 330 332 329 326 322 320 318 316 313 314 308 309 306 310 308 310 310 309 308 305 302 305 303 304 304 302 302 315 308 316 328 330 330 327 328 327 327 329 332 335 336 338 336 335 335 335 336 336 337 337 337 337 338
314 314 314 314 314 314 314 314 313 312 311 310 311 315 317 319 318 320 318 318 310 303 300 306 302 297 293 302 309 311 312 314 309 322 321 325 328 324 323 323 319 314 309 307 307 307 306 307 306 306 304 307 309 308 308 304 307 306 304 304 302 302 309 304 313 323 330 327 325 326 324 325 328 329 334 336 337 336 336 337 336 336 337 337 337 337 337 338
315 314 314 314 314 314 314 314 313 311 310 307 309 311 311 304 303 307 313 312 307 305 306 307 308 307 307 307 308 313 314 309 307 306 320 323 323 320 320 320 315 315 308 304 305 306 308 301 300 302 306 310 310 309 310 308 306 305 304 303 303 303 304 305 306 308 331 327 325 326 326 326 327 329 332 335 336 336 335 335 335 336 336 336 337 337 337 338
314 314 314 314 314 314 314 313 312 310 308 307 305 306 302 301 297 296 301 303 308 309 307 307 310 308 305 308 310 310 304 306 305 306 317 324 321 317 313 315 312 307 307 308 305 310 309 302 301 306 308 310 310 311 311 306 305 306 305 304 303 303 303 305 305 310 326 321 318 326 326 326 328 330 332 335 334 333 334 334 335 335 336 336 337 337 338 339
314 314 314 314 313 313 313 312 311 309 307 304 306 306 305 307 309 308 304 299 304 304 305 306 308 307 312 312 313 311 307 303 303 304 308 315 315 308 304 311 307 303 308 307 308 302 301 300 304 308 311 311 309 309 308 308 305 305 306 305 303 304 305 305 305 304 316 321 315 323 320 321 324 329 331 333 333 335 336 336 336 336 335 336 337 338 339 339
314 314 314 314 313 313 312 311 309 307 308 308 307 305 307 310 312 311 307 302 299 303 303 302 303 304 306 308 308 312 304 301 300 303 308 308 308 304 305 308 307 307 307 306 302 300 297 301 308 311 311 310 307 305 305 305 305 305 305 304 303 303 302 300 304 311 317 317 309 315 313 314 323 328 330 333 334 335 337 338 338 339 337 336 336 338 338 338
314 315 314 314 313 312 311 310 308 307 308 306 306 308 310 312 312 307 304 298 297 304 303 304 304 304 304 304 307 308 303 302 302 301 317 307 304 303 305 307 306 307 305 305 306 302 301 306 312 310 311 311 308 306 305 306 305 304 305 305 305 303 304 304 303 304 310 316 319 312 308 308 313 312 317 328 334 335 336 337 338 339 340 340 340 339 340 339
315 315 314 313 312 311 309 307 307 307 307 306 308 311 312 312 313 310 303 300 299 301 305 303 305 305 306 306 305 304 302 300 302 303 314 308 303 303 303 308 307 304 306 306 306 305 305 308 311 309 309 310 308 305 306 307 305 305 305 306 307 306 305 303 304 304 304 303 309 309 302 304 317 320 320 323 328 330 335 335 335 337 338 339 337 338 340 341
315 314 314 313 312 310 307 304 306 306 307 308 309 311 311 311 312 311 303 295 291 297 302 297 301 300 304 301 303 301 302 299 302 303 309 310 317 305 305 304 306 302 304 305 306 306 307 307 310 308 308 307 308 307 307 308 305 303 305 307 307 306 305 305 303 303 300 298 311 312 302 300 315 317 322 325 325 328 332 333 334 336 337 337 337 338 338 339
315 314 313 312 311 308 307 305 307 307 305 307 311 311 311 311 315 307 300 293 289 296 295 299 299 300 303 301 301 301 293 295 304 305 307 309 307 307 303 302 303 305 307 308 304 301 306 305 305 307 308 307 306 305 305 308 305 303 307 306 307 306 305 305 304 304 303 304 305 312 310 302 304 315 324 326 325 326 329 331 333 335 337 336 337 338 339 339
315 314 312 311 309 307 308 308 308 306 307 310 311 312 312 313 311 309 298 285 283 300 294 298 300 304 302 301 301 299 298 301 299 301 305 306 310 304 304 302 303 304 305 305 296 304 306 303 304 303 304 304 305 307 306 309 306 306 307 306 306 306 306 306 305 304 302 301 300 308 313 305 305 314 324 326 321 323 325 328 331 334 336 337 338 338 339 340
313 313 312 311 308 306 309 308 307 308 310 311 312 312 312 312 308 302 292 283 294 296 305 296 305 302 301 301 300 298 299 301 298 300 304 306 306 303 301 302 302 302 302 307 301 300 302 306 307 307 305 303 305 306 307 308 305 307 306 305 306 305 304 305 304 303 302 299 297 305 311 302 304 314 315 319 317 316 318 321 325 332 335 336 337 339 339 340
313 312 311 309 307 308 308 307 306 311 312 313 312 313 312 309 304 294 289 281 297 290 299 300 299 296 298 297 297 299 299 299 300 302 303 300 303 305 301 302 300 303 302 302 306 302 299 303 307 306 305 306 307 307 308 308 309 308 306 305 304 304 304 304 303 303 300 295 299 303 310 305 300 310 313 312 314 317 318 322 324 329 333 335 338 339 339 339
312 310 309 308 310 311 309 309 310 311 313 314 314 310 309 306 295 290 282 288 297 296 300 298 296 299 296 295 294 298 299 299 300 301 299 302 301 302 301 300 303 299 298 299 302 299 301 303 302 300 304 301 303 303 307 310 309 307 304 304 303 302 303 303 301 302 295 294 300 300 308 307 298 308 315 318 319 319 319 318 320 322 327 335 337 338 339 340
309 307 308 309 310 310 308 309 309 312 315 315 313 308 304 294 295 285 285 301 288 293 293 294 297 296 297 297 295 295 295 297 298 298 296 296 296 296 295 294 293 292 292 295 296 298 297 298 298 299 310 301 299 300 301 305 306 305 303 302 297 295 297 293 297 293 294 294 298 301 309 305 305 310 315 317 318 319 320 320 320 321 323 327 335 338 339 340
307 307 305 309 311 310 311 313 314 315 316 313 309 307 297 291 283 290 290 293 288 295 294 298 294 294 295 296 293 296 298 294 297 297 297 297 296 295 296 296 296 294 291 295 294 295 295 298 298 298 300 302 299 298 297 298 302 303 301 300 296 292 292 289 293 296 296 298 298 300 301 305 310 313 318 316 318 320 320 322 323 323 323 326 329 336 338 340
307 307 313 312 312 314 316 317 316 315 314 309 306 300 296 288 286 296 291 292 292 297 296 293 295 296 296 293 293 294 294 296 296 296 297 295 296 294 296 298 297 295 296 295 293 295 290 290 295 297 295 300 299 298 299 301 301 302 305 302 299 298 293 290 292 290 293 296 297 297 297 302 304 307 318 318 319 320 321 322 324 324 324 326 327 330 334 339
306 308 312 313 312 316 315 316 316 316 309 306 301 296 288 286 290 288 290 293 295 296 293 296 293 294 293 294 295 296 296 293 296 296 295 295 292 293 292 294 297 297 294 293 292 294 292 292 296 298 298 299 297 299 299 300 301 302 303 305 300 298 303 295 297 297 296 295 294 296 300 310 308 315 320 322 320 319 320 321 322 322 323 324 325 325 326 328
311 318 313 315 314 311 317 317 315 314 307 305 297 291 287 289 288 292 292 297 296 292 293 294 294 293 291 293 295 295 298 295 294 295 293 293 294 293 295 295 295 296 294 293 293 292 294 291 295 297 298 299 299 300 299 300 295 299 301 297 300 303 302 298 298 297 298 298 295 304 305 308 312 312 316 319 318 317 318 318 319 320 321 323 322 323 325 326
316 316 313 312 310 311 317 318 315 310 309 302 295 289 293 293 295 294 297 294 295 294 292 290 289 290 290 290 292 294 295 297 294 294 291 293 293 294 294 295 296 298 297 295 293 294 292 291 295 296 295 300 301 300 300 300 300 301 297 300 302 304 303 301 294 296 295 292 296 303 300 301 303 300 314 317 315 315 316 316 317 318 320 319 320 322 323 325
312 314 314 310 310 313 316 318 311 311 307 301 293 294 296 292 297 296 297 296 295 294 292 291 290 293 289 291 290 292 294 293 292 294 290 293 289 296 295 294 298 298 299 299 294 294 294 291 293 295 296 298 301 299 299 302 302 299 299 302 299 295 295 299 299 290 291 291 296 299 299 298 301 303 310 312 313 313 314 315 315 315 315 317 319 321 322 324
311 308 305 308 313 313 312 314 311 309 303 296 294 293 296 295 298 297 298 297 295 293 291 290 291 292 292 290 291 293 294 291 292 291 291 291 289 295 295 295 295 300 299 299 296 297 295 291 291 297 297 296 299 299 293 294 301 300 300 300 298 299 303 297 298 299 299 294 295 294 299 294 302 306 309 313 315 314 314 314 313 314 314 314 316 318 320 321
308 307 302 311 313 313 315 314 307 304 299 293 294 294 298 294 297 299 300 298 295 294 291 292 292 291 292 291 292 291 293 293 293 292 293 292 291 296 295 299 295 297 299 299 297 297 294 296 290 294 298 297 293 294 291 293 293 296 298 296 298 297 297 300 299 297 296 296 296 296 294 296 304 313 315 315 315 314 314 313 313 313 314 314 314 316 318 320
305 305 304 312 312 313 312 308 301 296 295 296 296 295 298 295 297 298 299 300 298 300 296 294 293 291 291 292 292 294 292 293 293 292 292 293 293 290 298 296 297 296 298 297 297 298 296 295 291 293 293 292 291 295 295 295 295 294 294 292 293 294 296 294 293 298 296 298 293 296 294 297 306 316 315 316 315 314 314 313 313 314 314 314 314 315 316 317
306 298 301 311 311 311 307 298 298 299 296 294 293 295 296 302 297 297 299 299 298 297 300 297 296 295 294 293 293 293 293 292 293 293 293 292 294 294 296 299 298 298 296 294 294 298 297 297 295 290 291 292 294 296 298 297 297 296 296 293 295 294 295 298 292 293 297 296 299 300 296 296 309 313 314 315 314 314 314 313 313 314 314 314 315 315 315 316
304 300 310 313 311 308 303 296 299 297 295 295 298 298 298 297 296 297 297 298 296 297 297 296 294 294 295 295 294 293 294 291 293 291 293 294 293 296 297 298 300 300 299 296 298 297 303 294 292 291 294 294 296 298 298 298 297 295 296 296 295 292 293 293 296 299 297 296 297 297 296 297 308 312 313 314 314 314 314 313 313 313 314 314 314 315 314 315
308 303 306 312 311 308 302 293 293 294 295 297 297 296 298 296 296 296 296 297 296 296 295 295 297 297 294 297 296 292 294 290 293 293 292 295 293 298 297 298 301 299 300 296 295 297 292 293 294 289 290 291 293 295 294 297 297 293 292 295 295 296 295 294 297 299 296 292 294 297 292 293 307 312 313 313 313 312 312 313 314 312 313 314 314 315 314 315
306 306 309 308 310 307 297 298 296 294 294 294 294 294 295 296 297 296 296 295 297 296 296 295 295 297 296 297 295 296 296 294 291 294 294 294 294 299 298 297 301 300 302 305 305 302 295 291 292 288 286 284 284 286 288 290 292 293 294 294 294 294 293 295 295 297 292 293 295 296 294 301 308 311 310 311 311 311 312 313 314 314 314 313 314 314 314 314
300 296 300 302 305 303 301 302 299 297 295 295 294 293 294 293 296 297 297 296 297 297 297 297 297 298 296 296 294 293 293 296 294 292 294 293 294 296 296 297 298 301 304 305 303 301 294 294 293 293 291 290 291 290 291 294 292 290 291 292 292 294 295 295 296 295 292 293 293 294 297 300 303 306 307 309 309 309 310 311 311 312 313 314 315 315 314 314
303 298 297 295 302 300 298 300 298 298 295 296 292 293 292 292 294 295 298 294 297 296 297 296 295 295 294 295 292 292 294 293 296 294 293 293 294 295 298 296 298 302 306 301 303 299 296 291 291 293 291 291 292 291 292 293 290 290 290 290 292 293 294 295 294 291 296 295 289 294 302 300 301 304 306 308 309 310 310 310 311 312 312 313 314 315 316 314
298 299 301 302 294 292 295 295 298 298 298 298 294 295 292 292 293 292 296 298 298 298 295 297 297 296 296 294 294 291 292 293 294 291 294 294 294 295 295 297 297 300 301 298 301 297 293 289 290 291 290 291 292 292 293 293 291 291 290 290 290 292 292 292 292 293 294 293 291 294 299 300 302 304 306 308 309 308 308 310 311 312 312 313 314 313 313 313
305 303 302 303 296 296 296 297 299 298 297 299 296 295 292 292 291 293 292 295 296 296 297 292 293 295 296 297 296 293 294 289 289 293 293 293 293 294 292 295 297 300 299 298 298 299 295 290 291 292 290 291 291 292 293 292 291 291 291 291 292 291 291 292 292 293 293 293 294 295 299 301 303 305 307 308 310 309 309 311 311 310 310 311 311 311 310 311
303 301 298 302 303 302 301 297 298 298 295 298 294 295 294 293 292 294 295 294 292 294 298 294 294 296 297 298 298 292 293 295 294 291 294 294 293 294 293 294 294 298 299 296 297 298 296 291 293 291 290 289 291 292 293 292 291 290 292 292 291 291 292 293 292 293 294 293 294 297 301 299 304 308 308 309 309 309 309 307 308 308 308 308 308 308 309 309
306 306 307 304 297 299 302 297 297 297 295 297 295 295 297 295 293 294 295 297 295 294 296 294 296 296 296 297 296 295 297 297 298 295 297 296 291 296 294 294 296 295 297 297 297 297 297 292 293 291 288 287 290 291 291 292 291 293 295 297 297 297 296 296 298 299 294 294 295 295 297 298 303 307 309 308 308 308 306 306 306 306 307 306 305 306 307 308
308 307 305 306 298 299 296 297 295 296 293 296 297 296 295 295 296 295 294 297 299 299 297 298 297 296 295 295 294 295 298 298 298 297 299 297 299 299 300 297 296 296 296 295 297 295 295 293 290 289 286 287 290 291 290 290 292 289 293 294 294 295 296 299 301 301 301 302 297 294 296 304 305 308 305 306 306 306 306 306 306 307 307 306 305 305 306 307
Wind_Speed
16 16 16 16 16 16 16 16 17 17 17 17 18 18 18 17 17 17 16 15 15 15 14 13 12 11 8 7 6 6 2 3 2 1 3 16 5 7 9 4 15 12 15 13 14 14 9 9 10 7 7 6 4 5 5 3 1 2 2 2 2 2 1 3 6 6 3 3 8 9 6 8 10 6 7 8 9 9 9 8 9 9 8 10 15 17 19 19
16 16 17 17 17 17 17 17 17 17 17 17 17 18 19 18 17 16 17 16 15 15 15 13 12 10 8 6 6 4 4 3 6 7 18 5 9 11 10 8 16 15 17 14 17 13 14 10 10 12 9 5 2 5 6 4 4 4 2 2 2 1 3 2 6 6 2 1 9 9 7 6 7 9 6 8 10 11 11 9 10 12 13 16 19 19 20 19
16 17 17 17 17 17 17 17 17 17 18 17 17 18 18 18 17 17 17 16 16 15 14 13 12 9 7 6 4 3 3 3 4 9 13 15 14 13 12 9 16 18 18 14 11 12 12 12 12 12 6 5 4 5 7 4 5 5 3 3 3 2 6 7 6 7 2 6 10 11 9 6 7 4 4 9 12 10 11 11 11 12 16 19 19 20 19 19
17 17 17 17 17 17 18 18 18 18 18 18 18 18 18 18 18 17 17 17 16 15 14 13 12 9 6 6 2 2 3 3 4 3 2 1 18 15 14 11 17 17 7 7 10 9 10 12 11 8 5 3 4 4 8 6 5 4 5 4 1 2 6 1 6 6 1 5 9 11 9 7 7 5 6 11 11 9 8 11 15 17 18 20 20 20 19 19
18 18 17 17 17 18 18 18 18 18 19 18 18 18 18 18 18 18 18 17 16 15 13 13 11 9 6 2 2 3 3 3 2 2 4 5 17 14 13 14 20 14 11 10 10 11 13 14 11 4 3 5 5 5 5 7 5 1 6 5 6 7 8 7 5 3 2 6 10 10 11 8 7 6 7 13 7 7 10 10 10 18 21 21 22 21 19 19
18 18 18 18 18 18 18 18 18 19 19 19 19 19 18 18 18 18 19 17 16 14 13 12 11 7 4 6 1 1 2 1 3 6 5 12 15 13 12 16 15 12 16 15 10 12 13 9 11 7 5 5 8 8 4 7 7 5 5 8 9 9 10 5 4 2 5 7 9 11 9 9 9 7 8 11 0 3 7 10 14 17 20 21 20 21 20 20
18 18 17 18 18 19 19 19 19 18 19 19 19 19 19 19 19 18 18 18 16 14 13 11 10 8 3 4 1 3 1 7 3 3 13 13 14 13 15 15 14 14 14 14 13 13 11 12 9 8 6 4 6 6 3 7 8 7 6 4 9 7 11 11 10 4 5 8 8 7 10 10 11 9 8 9 4 6 10 11 13 15 17 20 21 20 21 21
18 18 18 18 18 19 19 20 19 19 19 19 20 20 20 21 20 19 18 17 15 14 12 11 8 3 4 1 1 1 0 5 1 4 13 15 14 14 15 9 10 13 14 14 15 13 14 13 11 6 5 7 4 9 5 4 8 7 8 7 8 7 9 9 6 6 6 4 6 9 10 10 10 5 8 9 4 9 12 12 14 17 19 19 19 20 19 19
19 19 19 19 19 19 19 20 20 19 19 19 20 22 22 21 21 19 18 17 15 14 12 8 6 3 3 2 0 3 4 4 1 10 14 14 12 10 12 9 6 14 10 10 9 12 14 9 8 8 3 6 4 10 5 5 5 8 11 10 10 11 13 10 5 8 9 5 8 9 7 8 7 6 7 7 6 10 14 14 16 17 18 19 19 20 20 19
19 20 20 20 20 20 20 19 19 20 21 22 22 23 23 21 20 19 18 17 16 13 10 9 5 7 2 2 1 2 2 0 4 11 12 14 13 12 5 7 8 10 12 8 8 13 11 10 8 6 2 4 5 5 5 5 1 2 6 8 10 13 12 6 7 8 9 6 11 9 9 9 6 5 4 8 9 12 15 15 16 17 18 18 17 17 17 19
19 20 21 21 21 21 21 21 20 20 21 21 22 23 23 22 21 20 19 17 15 12 9 7 6 6 3 2 2 3 3 1 4 10 12 14 14 12 10 9 8 9 10 7 9 12 4 10 4 4 1 1 6 3 4 2 5 6 7 9 10 7 3 3 2 9 8 5 7 6 7 7 7 3 4 10 11 14 15 16 17 16 17 16 17 17 16 16
19 21 21 21 22 22 21 21 21 21 21 22 23 23 24 23 22 21 18 15 14 12 9 8 8 5 1 2 3 4 6 3 6 8 10 13 9 5 9 12 11 9 11 11 8 6 5 11 5 5 1 2 6 1 3 2 4 5 4 8 8 5 1 4 5 8 7 4 7 8 7 6 8 7 4 11 12 13 15 16 17 16 16 16 17 16 15 16
20 21 22 22 22 22 22 22 22 23 23 23 23 24 25 23 22 19 16 13 10 8 7 8 8 4 2 3 7 5 0 3 6 9 7 4 7 6 4 3 3 2 3 11 10 7 2 5 4 7 2 2 3 2 2 6 5 4 4 5 8 5 1 5 4 7 5 5 10 9 3 5 10 8 5 12 13 13 14 15 15 14 15 15 16 15 15 15
20 20 22 23 23 23 22 22 23 24 24 23 24 25 24 23 20 17 14 12 9 7 4 11 6 4 2 5 2 2 4 2 5 9 10 7 10 6 6 4 3 3 3 3 2 3 5 2 4 0 1 1 1 3 3 1 1 3 1 1 3 4 1 3 3 8 4 5 9 7 2 4 5 10 7 11 15 16 15 15 15 15 15 15 15 14 15 16
21 21 22 22 24 24 23 22 22 21 23 25 24 25 22 18 14 8 8 7 8 8 7 10 3 3 3 5 4 4 6 7 9 8 10 12 10 7 7 6 4 3 2 4 3 4 2 1 2 5 4 1 2 3 0 1 2 1 3 5 1 4 2 4 4 8 4 3 8 5 4 2 2 9 11 11 13 15 14 14 15 15 14 15 14 15 15 15
18 19 21 23 24 24 23 20 19 21 23 25 22 22 20 10 3 4 8 8 9 8 9 5 3 2 2 5 4 5 5 4 6 9 8 11 12 6 10 8 6 3 3 1 2 2 4 4 5 3 2 3 3 1 1 2 3 1 5 1 2 1 1 2 4 6 3 8 8 8 1 2 4 2 10 11 14 15 13 14 14 15 16 15 14 13 14 14
17 19 19 23 25 25 24 20 20 21 20 22 22 18 15 11 9 13 13 12 8 6 4 1 3 2 2 2 1 3 3 3 3 5 8 3 5 13 13 10 6 6 3 3 1 6 7 7 2 3 1 2 2 1 5 5 3 4 0 3 2 3 1 2 3 6 6 7 8 9 5 2 3 5 8 11 14 14 13 14 15 13 14 14 13 14 14 14
20 18 19 19 23 24 23 20 20 19 18 21 18 11 10 7 10 16 13 8 6 3 1 0 2 1 7 5 3 4 2 1 2 4 5 2 8 12 10 6 6 9 7 6 2 7 7 6 5 6 4 6 5 5 8 9 8 6 6 5 3 0 2 3 1 7 7 7 6 9 8 9 1 5 8 10 13 14 13 14 15 15 14 14 13 13 14 13
22 22 20 20 22 23 20 19 16 15 16 21 16 8 7 3 1 4 7 4 3 2 3 3 4 3 3 3 3 4 2 3 4 9 8 10 4 6 6 7 13 13 8 7 4 8 5 5 4 5 10 10 10 8 7 4 4 5 3 2 2 2 3 1 1 3 10 8 6 8 8 10 9 6 8 9 12 13 12 12 12 14 14 13 13 14 13 13
22 19 22 20 20 24 23 17 15 14 14 12 5 3 2 2 1 2 1 1 4 5 2 1 5 3 7 5 3 5 2 2 5 1 7 5 11 9 8 9 7 4 10 7 8 7 8 11 12 13 12 10 7 6 7 1 3 6 5 3 2 1 1 1 3 1 7 4 8 9 11 9 7 8 9 11 11 11 13 14 13 15 15 16 15 15 14 14
20 21 20 20 18 20 18 17 16 14 14 4 2 1 3 1 1 1 4 7 6 6 8 6 9 7 6 3 3 4 2 0 2 5 9 7 10 13 6 8 9 7 6 5 8 5 6 8 11 8 7 9 8 8 8 2 2 2 1 1 2 1 1 3 3 4 5 6 3 7 6 10 9 7 9 10 12 13 14 14 14 15 16 16 17 16 16 14
21 19 19 18 19 18 18 16 16 15 7 2 2 2 4 2 2 2 1 4 3 5 6 7 1 7 4 6 4 1 2 1 5 7 4 8 11 8 6 6 9 9 5 8 7 9 9 12 8 7 9 7 4 7 5 7 5 3 4 1 2 2 3 2 2 2 3 6 3 2 6 9 11 9 9 13 15 14 15 16 18 17 16 14 15 15 14 13
22 20 19 19 17 18 17 15 14 13 1 1 2 4 3 1 2 1 3 3 6 2 2 2 4 6 7 3 2 5 4 3 7 6 9 6 9 3 11 7 9 7 6 10 10 10 8 9 8 8 9 9 4 5 5 4 3 4 4 4 5 3 3 4 3 5 5 4 3 2 6 6 5 5 9 13 14 13 15 16 15 15 17 17 16 15 14 16
23 21 20 18 18 16 16 16 14 4 1 2 1 4 2 1 2 4 5 3 5 4 3 3 3 2 5 2 3 7 4 2 3 9 3 9 9 2 7 8 7 8 8 9 6 9 2 5 8 8 9 10 8 6 6 5 6 3 5 5 4 3 3 3 3 2 3 7 2 1 4 6 4 6 6 9 13 12 13 14 13 12 13 12 12 14 15 16
22 22 21 18 17 16 15 15 1 2 2 1 3 3 2 3 2 4 3 2 2 4 1 1 1 5 1 1 3 4 1 2 2 2 2 8 6 4 4 2 5 7 8 6 6 6 3 4 8 9 7 7 7 6 6 5 6 4 5 8 7 2 3 2 1 5 2 2 3 5 2 2 2 4 5 2 8 12 11 13 14 13 13 13 15 16 15 15
21 20 20 17 18 14 15 2 1 1 2 2 3 2 2 3 2 3 2 1 2 3 1 2 1 2 1 2 2 2 3 3 2 0 1 1 2 2 4 3 2 8 7 9 6 3 4 6 10 10 9 7 8 7 5 7 5 5 5 8 8 6 5 3 2 3 2 3 4 3 4 1 2 6 8 4 5 9 9 13 14 13 13 15 15 15 15 16
19 19 16 15 14 12 3 2 1 2 2 1 2 3 3 4 0 5 3 2 2 3 2 2 1 2 1 1 1 2 7 4 2 2 3 4 2 2 8 5 2 4 3 4 2 6 4 6 5 6 9 9 7 9 6 8 5 6 2 4 7 8 8 8 4 4 3 3 3 4 3 2 1 8 10 6 3 4 6 8 11 12 13 14 15 16 16 16
20 18 13 11 8 5 1 2 1 1 1 1 2 3 4 3 3 1 2 1 4 3 3 2 1 1 1 1 0 2 3 3 4 3 4 4 2 3 3 8 9 9 6 6 9 3 8 6 7 8 6 6 9 4 8 9 7 2 2 5 6 10 10 8 5 3 1 3 3 5 3 3 1 7 10 9 4 6 5 6 9 12 13 14 14 14 16 16
17 14 11 9 5 4 2 1 1 1 1 2 4 4 3 0 2 1 2 3 2 2 2 2 1 2 3 0 3 2 2 4 3 1 5 2 10 3 6 4 1 7 2 7 6 4 2 5 9 7 7 7 4 6 9 11 8 4 3 3 2 2 1 4 5 3 2 3 4 5 8 3 3 8 9 10 10 10 11 10 9 10 13 14 15 15 14 14
16 15 10 5 1 3 1 0 4 2 3 3 5 5 2 2 2 3 2 5 5 2 1 3 3 1 2 2 4 8 8 5 3 3 9 3 10 6 6 1 3 7 5 1 4 3 2 1 1 2 5 2 5 5 11 13 7 5 7 5 4 2 2 3 2 2 3 5 5 4 10 4 2 7 10 10 8 10 10 8 9 9 11 13 13 13 13 13
15 12 8 3 2 1 4 1 2 2 2 3 5 2 2 1 1 0 4 3 4 2 2 2 4 3 2 4 6 4 7 7 7 5 7 6 9 11 8 5 6 3 3 2 6 2 4 5 4 3 2 2 2 5 4 11 7 9 5 6 3 1 1 2 2 3 5 4 1 2 3 2 4 5 8 9 10 10 10 10 11 12 11 10 12 12 13 14
17 11 6 5 1 1 1 7 1 0 3 4 4 1 1 1 1 7 3 2 1 7 5 5 3 4 11 10 8 8 2 7 9 7 7 4 10 10 9 4 6 6 5 4 8 3 6 4 1 1 1 7 1 5 3 5 6 9 7 7 9 4 5 6 3 7 7 3 2 4 9 10 8 5 6 9 11 11 11 9 10 11 10 11 7 14 13 14
17 11 1 5 5 1 5 3 1 1 4 2 2 1 2 2 5 4 2 7 3 4 5 1 4 3 1 12 7 7 9 8 5 7 4 8 7 7 6 10 5 2 3 3 4 7 4 2 6 2 1 5 2 8 6 6 9 11 10 8 8 8 9 7 5 2 1 3 0 3 1 6 8 7 8 9 10 10 11 10 10 10 11 9 10 6 12 12
15 6 2 4 5 5 5 2 1 2 2 2 1 3 3 6 3 3 4 4 4 2 3 4 3 9 11 7 5 4 10 10 8 6 4 3 8 6 6 11 14 5 3 1 4 5 8 6 3 3 2 6 2 4 1 1 11 10 8 10 7 5 6 9 6 10 9 5 4 1 4 7 8 5 6 8 8 10 10 10 10 11 10 10 9 11 7 8
14 1 2 1 3 5 8 3 2 3 2 2 8 5 7 2 2 5 5 5 3 5 3 4 1 4 6 6 5 6 2 5 6 10 12 9 5 5 7 8 10 5 2 4 1 1 2 3 5 1 2 3 3 4 1 3 7 3 3 5 7 9 1 5 4 5 7 6 6 3 2 5 9 8 8 7 9 11 12 14 16 16 14 13 12 12 10 10
4 1 1 3 2 7 2 1 3 3 2 3 9 8 7 2 4 4 3 5 5 4 9 5 8 6 4 4 3 7 10 4 3 2 6 9 7 8 6 4 7 9 5 1 2 2 3 4 4 3 3 4 6 3 1 4 4 7 7 9 5 4 2 4 2 4 4 3 4 3 8 7 6 3 9 9 11 13 14 15 17 16 15 14 13 12 13 11
4 4 2 7 8 9 3 2 2 2 1 7 8 5 1 1 2 5 5 7 8 7 4 1 5 3 2 3 3 7 4 3 6 3 4 3 3 11 8 4 1 7 4 3 3 3 0 5 2 5 2 5 7 2 5 8 4 7 7 6 6 1 3 2 6 3 6 10 4 3 7 6 5 5 7 10 12 14 14 16 15 15 15 15 14 13 13 13
3 1 2 6 12 8 1 2 2 1 6 10 10 8 1 3 3 4 5 7 3 2 3 3 3 3 2 2 4 7 6 1 4 2 4 6 4 5 5 6 4 5 8 2 2 2 2 5 2 4 2 4 6 2 4 8 9 3 3 3 5 6 9 1 2 10 10 10 6 4 7 7 5 4 7 11 13 13 14 12 14 16 16 16 15 15 15 14
0 2 3 9 11 11 5 3 1 5 8 9 3 5 3 2 4 7 7 4 1 3 4 5 2 6 2 4 2 7 8 4 2 4 2 4 2 6 6 3 4 10 8 5 1 1 1 0 4 2 4 1 6 6 3 8 4 3 3 3 3 3 2 8 2 2 6 5 6 6 6 4 4 4 8 9 10 11 13 12 13 14 14 14 14 15 14 15
4 2 4 9 12 8 11 4 10 8 8 7 3 4 2 1 5 8 11 7 6 4 3 3 5 5 8 6 2 4 7 9 5 4 3 4 2 2 9 5 4 10 7 5 4 2 1 2 2 4 5 4 4 6 6 7 5 4 2 3 2 3 3 3 3 1 3 5 6 7 6 4 3 7 6 9 9 10 11 11 9 11 13 13 15 15 14 15
1 2 1 9 15 10 5 10 9 9 5 2 2 3 5 4 6 7 9 10 5 7 7 6 3 4 1 3 7 4 4 6 5 5 4 4 6 1 9 9 5 6 6 3 4 6 1 3 2 2 6 9 7 2 4 9 10 6 4 4 4 2 6 9 6 2 1 3 3 9 6 6 4 5 8 9 8 9 10 10 10 12 12 13 13 14 15 15
4 3 5 12 13 10 7 8 6 0 4 6 5 4 3 5 5 9 8 6 7 6 4 5 8 8 6 7 3 4 4 5 5 5 7 5 6 5 8 11 5 4 4 3 3 5 3 1 4 7 5 4 4 6 4 2 3 9 8 5 3 1 3 3 7 5 3 3 2 3 6 4 4 6 6 8 7 8 9 10 11 10 12 13 13 14 14 14
4 3 5 8 10 4 10 8 3 5 5 2 3 4 2 5 4 5 6 8 4 4 5 9 6 1 6 3 4 5 4 7 6 5 3 6 9 8 6 9 8 2 1 3 2 3 1 3 6 6 4 3 5 5 3 6 1 2 8 8 7 5 4 3 4 3 3 3 4 4 2 5 4 6 6 7 7 7 7 10 11 10 11 11 13 14 15 15
0 2 4 7 12 3 6 4 5 5 5 4 5 5 3 4 8 11 9 9 6 5 5 4 4 8 5 4 4 3 3 4 4 3 5 2 4 4 6 9 11 7 6 3 2 4 2 2 1 6 3 2 4 4 2 2 4 5 4 7 7 6 3 1 2 2 3 2 3 5 6 5 6 5 6 6 7 9 10 10 9 11 11 11 12 12 12 13
1 2 1 6 11 8 6 1 6 5 4 5 5 9 6 4 4 4 6 8 6 4 1 6 4 2 5 2 5 5 7 4 6 4 2 2 3 3 6 9 9 8 7 6 3 2 4 2 2 2 4 5 5 5 4 2 4 2 3 6 8 10 10 2 3 1 2 1 1 1 6 7 9 5 7 6 7 8 9 8 9 10 11 12 12 12 13 12
3 3 4 5 7 6 5 2 3 4 4 2 7 4 3 4 2 5 4 6 6 5 7 1 1 4 4 4 8 8 9 9 4 4 1 3 1 1 2 8 8 8 9 10 8 1 3 2 3 2 2 1 4 4 3 2 1 2 5 6 7 7 7 3 1 0 3 6 6 6 6 11 9 5 5 6 6 8 8 10 10 10 11 10 11 12 13 13
2 4 3 4 3 6 4 6 3 2 2 1 3 4 7 5 3 3 6 4 8 5 4 7 4 2 4 6 5 8 5 8 8 8 4 4 1 2 3 4 5 12 12 6 8 2 3 4 5 8 10 8 6 5 3 2 3 3 4 6 5 7 7 6 3 4 1 5 6 2 7 8 7 4 3 4 5 5 6 8 8 9 10 10 10 11 13 14
3 1 1 1 1 2 4 6 6 6 4 1 4 0 4 6 9 4 2 4 2 5 2 3 9 7 5 5 2 4 3 5 4 4 1 2 1 2 2 6 8 8 8 5 5 3 3 3 2 5 7 6 4 5 3 3 3 2 2 3 5 6 7 6 6 3 3 3 5 8 6 7 6 4 3 4 4 5 6 8 8 7 8 10 11 13 14 15
3 2 1 2 1 1 2 3 4 6 9 6 3 4 6 8 8 4 2 5 5 7 6 6 6 7 5 1 2 4 1 1 3 2 0 3 3 2 1 2 4 8 7 5 5 3 1 4 3 3 8 5 5 4 3 4 3 2 2 3 3 4 3 3 2 2 2 4 6 7 6 8 6 5 4 4 3 4 4 5 7 10 11 12 12 13 14 14
2 1 3 2 4 3 3 2 2 5 7 5 3 3 2 4 8 3 3 5 3 5 3 8 5 7 6 6 5 7 5 5 3 2 0 1 2 1 1 1 2 2 5 4 2 2 2 4 5 4 4 4 3 3 2 4 5 3 4 2 2 0 1 2 2 1 0 2 5 9 10 7 4 3 5 4 3 3 4 7 9 9 12 12 13 13 13 14
1 1 1 2 3 4 3 3 3 3 3 3 4 2 2 3 5 1 6 3 3 3 3 6 4 5 5 7 8 7 3 3 2 5 3 1 2 1 1 1 2 2 4 3 3 2 2 3 1 2 3 3 1 3 3 4 1 4 6 7 7 5 5 4 4 3 1 4 6 9 7 6 6 5 5 4 3 3 5 6 7 8 10 11 13 14 13 13
1 1 1 0 3 3 2 1 1 1 4 1 2 2 2 2 1 2 5 3 4 3 0 3 2 4 4 7 9 6 3 2 4 4 2 2 2 4 2 3 0 3 1 2 2 2 2 4 4 4 4 3 1 2 5 1 5 4 3 5 5 5 4 5 5 5 5 2 3 3 4 7 9 6 6 3 2 2 3 4 5 7 8 9 11 11 12 13
Wind_Direction
350 350 349 347 345 343 342 341 340 339 338 338 335 333 333 333 331 332 331 333 332 332 333 338 339 339 336 335 334 329 81 345 308 216 249 244 183 214 172 177 169 201 146 127 129 135 130 129 130 154 141 168 130 175 155 202 266 209 216 263 243 293 296 37 5 345 0 153 144 154 161 140 137 138 124 132 121 122 125 99 89 86 100 123 129 133 141 146
348 347 347 345 343 341 340 339 338 336 335 335 333 330 330 329 328 328 327 329 330 329 331 334 337 337 335 331 333 338 324 285 280 259 235 191 194 192 191 178 169 175 142 142 155 154 138 143 142 155 147 146 160 171 155 185 199 220 216 243 297 238 43 322 335 318 276 93 151 154 157 155 142 142 172 155 142 137 123 116 111 108 113 123 131 138 145 149
345 345 344 342 341 340 338 336 335 333 332 332 330 329 327 326 325 325 325 325 327 329 329 331 333 333 334 331 331 89 319 283 254 254 262 226 204 182 189 185 174 167 164 157 160 151 148 145 145 148 147 125 178 152 197 141 200 217 247 243 245 278 300 286 304 317 283 131 149 158 162 166 149 154 175 163 151 152 146 141 131 132 133 138 141 147 150 153
344 344 342 340 339 339 336 334 333 332 330 330 327 326 324 323 321 322 322 323 323 326 327 327 328 332 330 325 334 176 273 265 269 276 287 235 185 175 185 181 170 167 125 112 135 124 109 122 143 150 132 153 143 163 179 172 212 163 221 235 58 86 340 306 328 332 302 170 153 159 152 150 169 153 181 158 152 172 170 166 154 149 147 146 150 153 155 157
343 343 339 339 339 336 334 333 332 330 329 328 325 323 322 320 320 318 320 318 320 322 325 323 325 325 324 81 70 238 280 288 90 264 333 156 163 165 173 168 160 153 140 119 112 124 140 141 146 142 162 144 150 158 221 180 219 158 244 266 282 288 292 302 320 328 109 145 147 154 159 165 148 162 180 169 169 184 183 170 155 147 151 153 157 158 159 160
342 341 339 338 337 334 333 332 330 330 328 326 324 321 319 318 316 316 315 316 316 318 320 322 320 316 327 123 154 224 270 329 356 334 74 130 143 146 157 146 140 133 130 138 131 140 131 143 150 157 166 162 174 182 167 202 188 244 237 257 260 266 276 297 309 172 158 154 160 169 163 129 167 173 179 183 273 89 147 153 151 153 154 154 157 159 162 164
341 338 337 338 334 333 332 330 329 329 326 324 321 318 316 315 313 312 311 310 311 313 317 319 315 305 127 117 115 282 254 297 315 85 117 126 127 136 143 134 142 141 141 127 140 148 154 153 178 168 162 141 176 194 156 190 189 238 270 269 273 269 270 276 282 210 199 178 169 156 151 160 173 173 178 188 52 136 141 146 147 145 150 153 159 167 166 166
339 337 337 334 333 330 330 328 328 327 325 323 319 315 314 312 312 310 308 305 307 308 315 313 311 290 140 232 194 199 93 252 315 126 129 123 127 134 141 127 143 147 148 149 152 152 151 159 177 141 176 180 158 195 160 167 181 222 251 262 274 280 268 277 274 202 184 163 143 147 161 171 178 160 162 183 123 137 136 139 141 147 155 160 162 166 167 168
338 335 334 334 332 329 328 327 326 324 323 321 317 313 312 311 309 307 303 301 302 305 305 310 303 304 154 211 123 288 232 234 209 148 138 126 122 117 131 140 175 152 142 143 156 148 155 179 156 179 185 183 154 193 176 201 197 212 246 267 275 283 286 288 261 202 176 155 160 157 170 162 160 126 173 166 143 143 139 143 146 152 160 164 168 168 170 173
336 333 333 332 330 329 328 327 324 323 321 319 316 313 311 309 307 303 300 297 297 299 298 290 265 232 163 202 143 254 72 257 134 152 138 123 120 128 145 149 164 136 138 149 137 157 180 169 171 173 170 151 165 178 185 216 40 164 256 268 280 283 295 303 249 186 171 167 169 162 164 166 161 198 166 172 154 145 148 150 152 159 166 168 169 171 174 175
335 332 332 330 329 328 327 326 324 322 319 318 316 312 308 307 303 298 295 293 292 290 285 270 257 176 212 232 162 230 15 177 133 144 141 131 134 146 159 162 166 152 138 142 156 172 130 158 182 147 224 149 180 142 202 171 312 284 285 289 272 271 262 292 204 154 158 155 177 156 141 155 168 210 206 164 159 159 154 156 160 165 171 171 171 174 176 179
332 332 331 328 329 328 326 325 324 322 321 319 314 311 307 304 299 293 290 289 285 280 269 250 204 188 240 192 215 241 5 52 134 141 144 146 141 126 148 158 171 158 148 157 171 183 151 167 176 192 88 163 186 96 217 328 296 292 304 295 298 304 320 63 134 159 171 132 173 142 128 184 186 205 165 156 156 164 160 161 165 171 175 175 174 176 179 181
332 331 330 329 328 327 325 324 324 323 323 319 315 313 308 301 294 286 282 282 276 263 242 214 178 191 231 240 227 225 321 41 122 131 130 102 101 92 119 90 66 77 164 157 168 190 163 161 186 188 80 252 144 220 22 285 284 285 244 280 292 303 92 84 115 152 167 136 170 179 202 200 203 193 156 153 161 164 165 166 171 177 178 177 178 180 180 182
331 329 330 328 327 326 325 325 324 324 323 320 318 315 308 300 290 279 266 253 255 253 212 179 164 173 221 255 270 178 230 171 126 151 157 143 124 109 124 128 94 108 69 83 100 186 154 61 160 155 7 275 94 316 259 109 261 245 54 246 296 305 82 112 142 156 161 150 181 207 257 66 163 182 154 166 162 166 172 173 177 180 180 181 182 182 184 186
331 329 329 328 327 325 325 325 325 322 323 323 322 318 309 297 282 269 230 212 216 220 199 150 170 172 205 269 277 263 128 132 166 188 169 157 133 122 141 144 134 117 54 85 148 195 151 175 122 183 199 118 263 287 287 297 45 331 222 215 160 261 93 102 150 173 178 161 197 202 251 301 42 181 156 168 173 170 171 176 181 182 184 184 183 186 188 189
329 330 330 328 326 324 324 324 324 325 325 325 325 319 314 325 42 140 147 155 168 183 157 136 184 243 310 278 112 107 142 164 205 191 192 168 164 137 142 131 121 112 158 147 121 159 173 169 186 178 184 187 247 268 281 200 170 78 248 146 236 243 297 159 149 177 158 147 184 218 286 2 80 128 155 165 175 176 173 175 181 183 186 185 187 187 191 189
328 327 328 328 326 325 324 325 325 327 325 324 326 316 320 55 84 103 116 125 138 154 175 219 146 173 247 66 284 225 188 213 92 142 184 231 122 125 126 125 140 136 158 161 107 137 152 187 116 172 293 226 110 139 188 210 173 190 207 230 49 259 188 224 103 188 161 169 181 210 243 84 21 151 165 169 178 179 178 177 182 180 186 187 188 191 191 193
329 327 325 323 324 324 324 323 326 329 327 324 320 296 298 327 87 101 96 101 127 170 185 210 185 232 250 270 222 146 86 305 164 120 134 128 132 137 134 135 130 141 141 141 150 153 163 176 183 197 171 202 197 189 200 195 190 172 175 199 175 200 261 360 232 152 178 188 200 192 233 245 157 137 171 179 183 185 183 180 186 186 184 187 187 190 190 190
329 328 325 324 324 323 321 322 324 327 331 323 306 287 255 269 193 74 98 135 158 142 216 170 180 217 110 115 323 294 208 167 105 145 152 145 146 115 83 95 137 140 149 171 146 156 168 148 180 190 202 193 201 196 196 53 162 170 170 171 92 194 166 220 42 153 185 172 198 192 220 234 216 179 178 184 188 190 192 187 189 192 193 189 191 194 193 192
328 324 325 323 319 322 321 320 327 329 340 334 356 357 222 190 192 177 165 162 230 248 349 181 219 332 300 251 272 322 266 169 160 180 132 138 142 127 100 134 130 135 151 180 150 184 170 167 186 196 202 186 155 181 213 138 80 96 93 115 68 333 188 285 270 290 200 201 214 208 227 243 230 193 187 187 182 193 195 194 192 201 200 200 197 195 196 195
324 325 321 319 318 319 316 325 326 329 336 285 263 224 54 356 342 324 320 255 233 262 262 241 209 231 270 348 292 347 21 59 31 148 157 162 152 140 134 150 152 156 181 141 144 127 212 190 201 184 135 140 172 190 205 121 250 252 166 206 140 283 189 58 29 28 200 221 205 218 237 250 246 211 194 182 183 195 197 193 194 197 202 204 200 195 196 194
324 321 321 316 318 318 319 322 327 325 342 151 227 90 130 76 325 4 203 314 293 232 234 257 17 265 275 266 265 172 173 44 134 115 113 169 166 184 159 194 163 168 136 150 125 153 195 206 170 135 144 135 131 188 189 207 196 187 241 186 257 194 286 4 346 310 214 218 275 143 234 247 245 227 194 190 195 201 198 196 197 192 194 197 200 198 193 190
326 323 319 322 318 319 319 319 322 329 287 239 87 111 66 347 318 295 223 244 268 228 232 165 226 252 281 261 233 170 186 179 146 168 156 175 169 222 150 180 180 139 152 174 174 164 183 212 141 136 141 148 117 155 165 164 198 207 199 214 217 91 237 157 51 27 147 213 315 226 245 263 267 247 217 208 206 206 203 205 203 193 193 196 196 195 195 195
322 321 325 320 322 319 319 322 307 269 19 357 263 73 101 354 319 154 173 282 322 314 207 217 225 228 237 286 159 167 199 151 172 155 148 167 169 123 166 171 147 157 176 183 190 176 163 135 143 145 151 170 170 156 172 186 200 194 231 234 238 189 227 306 86 343 201 234 301 277 269 260 249 249 229 219 213 210 206 206 208 201 200 197 193 198 198 197
322 323 324 322 321 324 318 317 315 18 316 167 238 241 276 294 264 217 249 278 192 255 114 173 220 233 266 91 113 207 207 106 260 59 160 159 121 147 186 117 168 184 160 163 157 191 128 112 144 147 153 168 167 171 194 198 218 195 222 234 245 232 234 196 349 318 269 193 191 226 260 175 102 253 261 217 200 215 207 205 207 202 195 191 198 200 197 200
322 322 324 321 325 326 310 274 36 4 308 110 119 168 314 301 256 208 223 20 56 12 227 158 273 140 21 195 141 244 174 109 338 9 139 50 36 160 121 173 265 177 145 157 180 214 168 131 177 165 162 162 194 210 168 203 222 217 205 202 229 235 229 223 217 265 233 216 87 238 267 271 111 40 2 317 231 217 206 213 212 205 201 198 202 201 199 197
320 322 321 321 327 334 298 52 35 228 139 133 181 327 323 297 136 162 250 208 80 8 349 33 256 111 250 49 195 145 188 119 200 75 75 10 213 356 190 157 156 59 143 132 142 196 159 149 151 150 164 179 187 214 169 198 199 220 106 190 214 214 214 225 217 241 272 353 250 224 254 266 284 34 349 353 300 254 235 233 233 225 217 210 206 203 200 198
318 320 318 319 329 341 346 344 289 116 281 87 12 324 320 308 143 266 247 239 45 293 11 272 338 262 289 48 314 285 7 92 157 76 60 352 213 145 245 173 192 162 154 173 196 95 175 168 179 153 161 177 206 198 143 190 207 228 167 174 210 215 216 208 209 226 293 310 249 190 181 224 76 10 18 13 40 21 341 290 257 246 242 237 227 214 207 203
317 319 323 320 357 34 203 289 290 193 49 10 318 332 328 249 198 224 266 80 53 331 155 82 9 174 350 167 61 346 170 12 89 2 327 212 31 238 200 165 151 123 57 197 192 132 235 186 182 187 196 208 167 184 171 181 205 204 119 95 77 111 157 212 216 189 179 226 233 178 191 229 92 17 15 20 18 2 345 327 300 263 247 237 236 230 221 211
316 323 325 317 140 140 122 216 240 291 312 328 328 321 260 154 196 223 229 64 328 65 312 285 277 271 315 103 39 11 53 13 40 19 44 82 12 59 49 337 174 142 152 60 222 78 59 35 298 125 216 239 196 182 177 182 198 89 135 164 132 92 91 99 96 163 152 230 241 197 185 238 90 30 22 12 5 338 334 334 339 311 239 230 225 221 222 218
320 320 320 236 203 133 165 263 211 236 274 326 312 296 169 71 259 349 63 15 306 329 267 23 5 326 74 135 115 357 59 14 21 8 60 6 36 44 12 163 21 132 113 105 185 92 121 131 152 99 355 110 186 141 198 198 171 166 174 198 197 217 184 209 141 174 218 206 155 25 138 45 220 45 20 11 360 360 351 343 342 343 331 233 209 209 208 213
322 324 301 193 193 183 226 330 65 279 345 314 314 138 176 240 127 46 50 152 53 1 3 337 17 58 82 77 61 20 50 65 24 50 65 25 65 47 23 41 338 169 172 178 166 134 133 88 9 181 80 31 130 168 130 197 182 195 159 175 185 150 180 190 187 201 202 186 87 124 137 92 68 48 19 13 6 2 2 351 346 345 347 348 261 210 205 197
324 328 139 187 171 226 232 255 63 334 319 281 148 163 93 83 60 352 307 343 81 345 28 274 349 23 175 79 53 45 37 62 315 45 75 50 79 83 75 40 2 289 183 178 151 165 114 157 40 62 242 47 328 201 139 171 191 193 196 185 188 167 185 188 172 0 162 145 79 156 284 76 117 78 29 22 14 7 3 0 359 358 356 347 356 268 209 201
319 329 148 197 207 234 277 241 254 333 289 107 186 110 110 60 45 325 303 343 317 5 319 5 302 70 39 74 22 297 69 36 48 36 37 100 43 35 20 33 20 15 340 157 187 179 161 175 68 346 123 344 24 344 349 149 169 198 188 192 204 198 182 176 178 184 187 141 126 26 221 157 162 76 39 36 22 14 13 14 12 14 11 9 13 23 1 229
315 339 149 154 244 237 246 255 210 196 186 199 68 53 67 47 286 339 325 342 320 326 339 349 335 75 71 68 351 37 2 98 7 52 43 56 29 37 2 356 12 8 311 207 66 231 8 62 48 315 346 343 10 352 269 140 142 154 169 184 200 212 314 209 157 186 166 141 134 128 42 92 110 115 68 43 31 23 18 20 19 18 16 14 24 20 6 359
302 130 194 301 292 3 25 129 163 184 232 60 69 43 60 41 2 336 329 332 289 327 327 315 35 79 64 88 27 35 26 55 4 56 57 56 59 37 352 344 7 9 4 352 25 157 169 110 354 6 146 36 9 308 56 287 192 167 172 195 183 13 190 89 72 3 34 186 116 85 118 104 116 164 43 32 25 23 21 23 22 16 12 20 24 12 7 357
29 310 12 335 354 2 7 156 187 242 94 75 81 63 57 140 346 300 301 314 300 309 299 104 14 11 28 47 34 354 21 32 43 17 66 326 65 11 354 324 277 4 29 297 79 1 259 103 64 38 100 37 359 260 79 56 328 136 200 154 89 15 1 253 174 155 192 195 115 183 134 137 200 136 13 29 19 21 21 22 21 19 17 23 18 11 5 356
355 19 229 350 356 336 16 215 250 220 62 77 74 96 255 28 39 339 313 305 307 228 21 66 77 312 64 92 41 353 333 43 11 12 85 3 100 315 351 339 314 13 350 342 298 87 295 134 111 88 283 352 352 187 145 51 24 353 71 76 208 157 189 13 171 180 176 192 128 104 95 76 20 32 355 24 18 13 17 12 18 20 18 17 14 13 7 1
279 49 27 0 348 343 323 280 257 55 83 68 42 96 23 36 339 0 342 291 308 249 42 22 114 24 52 76 135 43 13 98 18 49 134 16 63 17 27 321 315 347 349 336 212 45 307 126 136 75 7 281 39 12 43 329 359 86 230 107 33 292 192 172 240 349 202 156 147 145 195 101 33 8 318 37 16 19 20 18 20 20 20 16 14 10 7 8
10 45 27 339 350 336 320 297 54 39 54 71 51 61 320 354 346 348 358 8 27 358 69 52 19 100 54 69 24 83 39 47 64 64 51 8 86 125 19 3 336 315 334 349 61 270 37 307 106 18 357 218 43 24 52 8 357 26 122 49 35 11 325 354 63 333 231 158 191 137 165 123 51 342 9 52 31 22 21 19 20 23 20 19 17 12 8 10
267 67 333 352 344 332 275 42 40 43 68 79 69 34 16 19 344 0 1 6 72 31 63 65 9 68 103 118 65 17 83 46 52 66 50 67 5 93 22 359 319 318 324 261 30 15 2 9 79 7 44 59 102 59 32 38 37 41 37 58 345 320 152 182 174 127 329 192 165 178 144 97 41 5 22 47 32 24 22 16 23 21 19 19 14 13 12 10
34 42 336 347 344 316 67 55 30 33 68 58 47 357 11 12 4 359 2 5 48 61 33 79 46 63 48 56 57 35 92 65 33 79 38 74 35 32 341 333 322 278 332 42 357 6 10 59 67 75 55 83 108 102 51 18 30 50 46 38 351 355 327 272 193 161 121 48 18 32 109 98 22 10 29 43 33 30 21 19 23 20 20 19 16 13 11 13
23 35 295 312 352 347 78 67 38 58 63 35 223 54 355 54 7 342 9 2 37 19 40 45 13 50 33 50 69 76 50 79 9 71 116 78 59 17 322 326 328 356 313 38 226 23 283 29 80 72 94 114 192 225 296 14 279 205 42 28 25 27 348 0 11 56 106 140 167 135 108 108 73 37 41 48 43 36 32 26 21 27 21 19 19 17 13 12
179 9 337 347 353 273 70 81 79 77 78 60 66 65 22 66 25 20 27 16 28 17 51 36 58 41 81 36 67 73 306 112 32 65 93 321 66 327 348 360 352 38 2 30 333 11 271 50 326 126 135 162 196 194 167 154 52 51 27 17 11 19 42 355 354 277 111 26 342 179 162 141 109 58 56 50 45 43 34 29 30 29 24 22 20 18 15 13
134 228 321 333 2 23 72 351 116 99 82 71 61 43 19 58 34 32 26 34 15 33 262 51 18 319 72 43 82 79 39 19 120 11 75 55 72 314 356 0 0 33 30 37 34 321 60 35 318 167 156 165 182 192 169 162 26 15 38 4 24 19 9 310 160 164 119 103 293 101 101 110 114 99 67 50 43 46 33 23 31 32 27 26 22 22 20 18
17 72 329 22 12 34 70 357 32 91 96 72 62 35 24 42 38 24 1 58 20 42 50 60 22 25 51 71 58 44 53 30 62 149 181 108 64 24 320 334 10 24 19 40 29 27 92 67 32 341 323 359 55 67 51 334 28 71 13 19 18 10 5 6 350 147 107 141 101 36 112 137 146 115 87 58 39 31 20 21 23 20 19 23 26 25 25 23
130 59 343 2 299 54 43 29 31 359 93 291 72 357 31 23 322 54 0 70 14 19 64 46 10 26 32 68 79 74 26 75 58 83 34 94 48 327 299 322 350 14 357 26 2 72 96 89 24 49 66 82 94 84 75 17 60 65 6 18 10 23 360 17 39 80 339 137 91 105 126 131 132 125 93 78 56 46 33 19 18 21 17 16 17 20 23 24
70 147 211 318 10 358 359 36 359 74 59 88 80 323 35 46 42 33 354 72 229 12 44 36 42 45 47 65 74 90 30 60 36 75 47 20 312 30 22 15 25 349 5 49 358 58 84 99 84 89 88 82 73 87 67 72 50 22 351 339 5 15 20 52 66 59 344 360 119 154 168 131 127 115 108 76 60 57 35 16 12 10 16 20 21 22 22 20
58 123 93 297 91 13 324 317 339 58 61 38 100 41 68 54 61 35 9 5 33 30 0 90 26 14 20 346 86 94 346 112 78 29 331 63 33 356 53 327 24 7 15 41 40 25 110 68 88 97 112 95 74 52 17 18 19 320 6 358 346 0 34 30 37 9 350 79 92 143 147 127 125 126 123 103 78 61 49 28 22 22 22 20 21 23 22 19
69 57 101 21 75 83 358 351 12 37 65 345 81 12 66 45 65 42 53 17 71 45 333 73 50 42 32 49 53 72 61 42 80 106 130 129 110 335 62 334 323 9 10 38 354 38 294 113 128 144 113 98 43 358 340 1 355 358 25 50 82 156 105 109 135 147 214 116 119 139 132 133 137 136 129 117 90 86 70 50 40 28 20 17 19 18 16 15
71 6 344 127 73 8 343 13 21 25 77 19 65 73 91 34 87 23 71 356 38 81 57 88 82 85 35 55 58 64 360 34 69 58 158 232 38 98 321 122 244 26 6 28 8 29 352 115 51 161 150 128 40 327 12 358 53 100 90 68 68 88 98 76 95 65 142 112 121 150 158 153 158 156 139 132 103 71 61 49 46 36 25 22 20 15 11 8
55 26 337 93 90 348 35 317 337 236 69 359 22 33 74 55 80 198 99 59 64 62 136 121 128 83 71 60 52 23 0 234 349 10 34 30 60 70 30 57 275 325 32 52 329 39 18 140 152 168 172 138 115 296 335 310 162 167 120 74 55 79 63 99 88 58 36 345 165 177 108 116 144 150 146 133 138 93 49 41 41 38 33 28 22 13 8 5